DW9728 Weather Reports


time (UTC)temp
C
wind
direction
speed
KPH
gust
KPH
rain 1hr
cm
rain 24hr
cm
rain mn
cm
humidity
%
barometer
mb
20260507010455 17 144 3.2 11.3 0.00 0.00 0.00 81 1011.3
20260507004655 18 136 1.6 11.3 0.00 0.00 0.00 80 1011.7
20260507003755 18 143 3.2 17.7 0.00 0.00 0.00 80 1011.4
20260507002855 18 146 3.2 14.5 0.00 0.00 0.00 80 1011.2
20260507001955 18 160 4.8 12.9 0.00 0.00 0.00 79 1011.1
20260507001055 18 148 3.2 14.5 0.00 0.00 0.00 79 1011.0
20260507000155 19 141 3.2 14.5 0.00 0.00 0.00 78 1011.0
20260506235255 19 147 3.2 14.5 0.00 0.00 0.00 78 1010.8
20260506234355 20 146 4.8 16.1 0.00 0.00 0.00 77 1010.6
20260506233455 20 140 4.8 14.5 0.00 0.00 0.00 77 1010.7
20260506232555 20 147 4.8 16.1 0.00 0.00 0.00 76 1010.6
20260506231655 20 153 6.4 19.3 0.00 0.00 0.00 76 1010.4
20260506230755 21 144 6.4 14.5 0.00 0.00 0.00 75 1010.5
20260506225855 21 147 4.8 14.5 0.00 0.00 0.00 74 1010.4
20260506224955 22 144 4.8 14.5 0.00 0.00 0.00 75 1010.2
20260506223155 22 150 6.4 16.1 0.00 0.00 0.00 73 1010.0
20260506222255 23 146 4.8 16.1 0.00 0.00 0.00 73 1009.7
20260506221355 23 141 4.8 20.9 0.00 0.00 0.00 72 1009.7
20260506220455 24 155 4.8 14.5 0.00 0.00 0.00 73 1009.8
20260506215555 25 150 4.8 14.5 0.00 0.00 0.00 72 1009.7
20260506214655 25 155 4.8 17.7 0.00 0.00 0.00 71 1009.6
20260506213755 26 156 6.4 16.1 0.00 0.00 0.00 71 1009.4
20260506212855 26 165 3.2 19.3 0.00 0.00 0.00 70 1009.4
20260506211955 27 178 3.2 11.3 0.00 0.00 0.00 69 1009.5
20260506211055 27 161 3.2 11.3 0.00 0.00 0.00 72 1009.5
20260506210155 27 163 6.4 16.1 0.00 0.00 0.00 72 1009.5
20260506205255 27 152 4.8 19.3 0.00 0.00 0.00 72 1009.5
20260506204355 27 150 3.2 12.9 0.00 0.00 0.00 72 1009.5
20260506202555 27 154 3.2 8.0 0.00 0.00 0.00 74 1009.9
20260506201655 27 152 1.6 9.7 0.00 0.00 0.00 75 1009.9
20260506200755 27 166 1.6 6.4 0.00 0.00 0.00 74 1009.8
20260506195855 27 208 3.2 4.8 0.00 0.00 0.00 74 1009.7
20260506194955 28 224 1.6 8.0 0.00 0.00 0.00 74 1009.6
20260506194055 28 226 1.6 4.8 0.00 0.00 0.00 74 1009.7
20260506193155 28 202 1.6 6.4 0.00 0.00 0.00 73 1009.6
20260506192255 28 232 3.2 6.4 0.00 0.00 0.00 75 1009.7
20260506191355 28 268 3.2 11.3 0.00 0.00 0.00 74 1009.8
20260506184655 27 179 3.2 8.0 0.00 0.00 0.00 76 1010.1
20260506182855 27 217 1.6 8.0 0.00 0.00 0.00 76 1010.2
20260506181955 26 210 3.2 4.8 0.00 0.00 0.00 80 1010.1
20260506181055 25 270 1.6 9.7 0.00 0.00 0.00 80 1010.2
20260506175255 23 142 1.6 6.4 0.00 0.00 0.00 82 1010.4
20260506174355 23 176 1.6 6.4 0.00 0.00 0.00 82 1010.5
20260506173455 24 173 3.2 12.9 0.00 0.00 0.00 78 1010.6
20260506172555 27 219 3.2 17.7 0.00 0.00 0.00 74 1010.5
20260506170755 27 270 1.6 8.0 0.00 0.00 0.00 82 1010.4
20260506165855 26 244 1.6 3.2 0.00 0.00 0.00 85 1010.6
20260506164955 26 269 1.6 4.8 0.00 0.00 0.00 86 1010.7
20260506164055 26 283 1.6 6.4 0.00 0.00 0.00 86 1010.8
20260506163155 25 258 1.6 6.4 0.00 0.00 0.00 86 1011.0
20260506162255 25 198 0.0 6.4 0.00 0.00 0.00 88 1011.1
20260506160455 25 152 0.0 3.2 0.00 0.00 0.00 90 1011.1
20260506155555 24 207 0.0 1.6 0.00 0.00 0.00 90 1011.0
20260506154655 24 281 0.0 1.6 0.00 0.00 0.00 91 1010.8
20260506151955 24 280 0.0 3.2 0.00 0.00 0.00 92 1009.9
20260506151055 23 278 0.0 3.2 0.00 0.00 0.00 92 1009.9
20260506150155 23 0 0.0 0.0 0.00 0.00 0.00 92 1010.0
20260506145255 23 0 0.0 0.0 0.00 0.00 0.00 92 1009.8
20260506144355 23 0 0.0 0.0 0.00 0.00 0.00 92 1009.9
20260506143455 23 149 0.0 1.6 0.00 0.00 0.00 93 1009.8
20260506135855 23 276 0.0 4.8 0.00 0.00 0.00 93 1009.1
20260506134055 23 288 0.0 3.2 0.00 0.00 0.00 93 1008.7
20260506133155 23 282 1.6 4.8 0.00 0.00 0.00 93 1008.7
20260506132255 23 258 1.6 4.8 0.00 0.00 0.00 93 1008.7
20260506131355 23 277 1.6 6.4 0.00 0.00 0.00 93 1008.6
20260506130455 23 270 1.6 4.8 0.00 0.00 0.00 93 1008.6
20260506125555 23 270 1.6 4.8 0.00 0.00 0.00 93 1008.6
20260506124655 23 281 0.0 3.2 0.00 0.00 0.00 92 1008.7
20260506123755 23 33 0.0 3.2 0.00 0.00 0.00 92 1008.8
20260506121955 23 26 0.0 1.6 0.00 0.00 0.00 92 1008.5
20260506121055 23 338 0.0 1.6 0.00 0.00 0.00 92 1008.5
20260506115255 23 348 0.0 3.2 0.00 0.00 0.00 92 1008.2
20260506114355 23 325 0.0 3.2 0.00 0.00 0.00 92 1008.2
20260506113455 23 287 0.0 3.2 0.00 0.00 0.00 92 1008.2
20260506112555 23 274 0.0 3.2 0.00 0.00 0.00 92 1008.1
20260506111655 23 44 0.0 1.6 0.00 0.00 0.00 92 1008.2
20260506110755 23 39 0.0 3.2 0.00 0.00 0.00 92 1008.2
20260506104955 23 271 1.6 3.2 0.00 0.00 0.00 92 1008.0
20260506104055 23 4 0.0 4.8 0.00 0.00 0.00 92 1008.0
20260506103155 23 275 1.6 3.2 0.00 0.00 0.00 91 1008.0
20260506102255 23 351 1.6 4.8 0.00 0.00 0.00 91 1008.0
20260506101355 23 305 0.0 4.8 0.00 0.00 0.00 91 1008.1
20260506100455 23 15 1.6 4.8 0.00 0.00 0.00 91 1007.9
20260506095555 23 6 0.0 4.8 0.00 0.00 0.00 91 1007.8
20260506094655 23 335 0.0 4.8 0.00 0.00 0.00 91 1007.8
20260506092855 23 351 1.6 8.0 0.00 0.00 0.00 91 1007.6
20260506091955 23 335 1.6 8.0 0.00 0.00 0.00 90 1007.5
20260506091055 23 337 1.6 8.0 0.00 0.00 0.00 90 1007.7
20260506085255 23 327 1.6 6.4 0.00 0.00 0.00 90 1007.6
20260506084355 23 1 1.6 6.4 0.00 0.00 0.00 90 1007.5
20260506083455 23 32 0.0 6.4 0.00 0.00 0.00 90 1007.7
20260506082555 23 33 0.0 3.2 0.00 0.00 0.00 90 1007.7
20260506081655 23 25 0.0 4.8 0.00 0.00 0.00 90 1007.7
20260506073155 23 355 1.6 9.7 0.00 0.00 0.00 90 1007.9
20260506071355 23 332 1.6 6.4 0.00 0.00 0.00 90 1008.2
20260506070455 23 333 1.6 8.0 0.00 0.00 0.00 90 1008.1
20260506061955 23 278 0.0 4.8 0.00 0.00 0.00 90 1008.4
20260506061055 23 279 1.6 4.8 0.00 0.00 0.00 89 1008.4
20260506060155 23 337 1.6 4.8 0.00 0.00 0.00 89 1008.4
20260506050755 24 298 1.6 8.0 0.00 0.00 0.00 88 1008.3
20260506044055 24 318 3.2 11.3 0.00 0.00 0.00 87 1008.2
20260506043155 24 295 1.6 9.7 0.00 0.00 0.00 87 1008.2
20260506042255 25 314 1.6 6.4 0.00 0.00 0.00 87 1008.2
20260506041355 25 320 1.6 4.8 0.00 0.00 0.00 87 1008.1
20260506040455 25 335 1.6 6.4 0.00 0.00 0.00 87 1008.1
20260506035555 25 279 1.6 8.0 0.00 0.00 0.00 87 1008.0
20260506032855 25 300 3.2 11.3 0.00 0.00 0.00 86 1007.4
20260506031954 25 321 3.2 8.0 0.00 0.00 0.00 85 1007.3
20260506031055 25 310 3.2 11.3 0.00 0.00 0.00 85 1007.3
20260506030154 25 313 1.6 11.3 0.00 0.00 0.00 85 1007.1
20260506025255 25 285 1.6 6.4 0.00 0.00 0.00 84 1006.9
20260506024355 26 289 1.6 4.8 0.00 0.00 0.00 84 1006.8
20260506023455 26 278 1.6 8.0 0.00 0.00 0.00 84 1006.7
20260506022555 26 284 1.6 6.4 0.00 0.00 0.00 84 1006.7
20260506021655 26 274 1.6 9.7 0.00 0.00 0.00 83 1006.6
20260506020755 26 267 1.6 4.8 0.00 0.00 0.00 83 1006.4
20260506015855 26 273 1.6 8.0 0.00 0.00 0.00 82 1006.2
20260506014955 26 273 1.6 8.0 0.00 0.00 0.00 81 1006.1
20260506014055 26 271 0.0 6.4 0.00 0.00 0.00 80 1006.1
20260506012255 27 266 0.0 1.6 0.00 0.00 0.00 79 1005.8
20260506011355 27 261 0.0 3.2 0.00 0.00 0.00 79 1005.9